| time (UTC) | temp C | wind direction | speed KPH | gust KPH | rain 1hr cm | rain 24hr cm | rain mn cm | humidity % | barometer mb |
| 20260506110044 | 11 | 198 | 1.6 | 4.8 | 0.00 | 0.00 | 0.00 | 88 | 1021.3 |
| 20260506105540 | 11 | 230 | 4.8 | 8.0 | 0.00 | 0.00 | 0.00 | 88 | 1021.4 |
| 20260506105038 | 11 | 186 | 3.2 | 4.8 | 0.00 | 0.00 | 0.00 | 88 | 1021.2 |
| 20260506104536 | 11 | 187 | 3.2 | 8.0 | 0.00 | 0.00 | 0.00 | 88 | 1021.1 |
| 20260506104033 | 11 | 190 | 3.2 | 4.8 | 0.00 | 0.00 | 0.00 | 88 | 1021.3 |
| 20260506103531 | 11 | 167 | 3.2 | 8.0 | 0.00 | 0.00 | 0.00 | 88 | 1021.2 |
| 20260506103027 | 11 | 236 | 4.8 | 4.8 | 0.00 | 0.00 | 0.00 | 88 | 1021.1 |
| 20260506102526 | 11 | 220 | 4.8 | 4.8 | 0.00 | 0.00 | 0.00 | 88 | 1021.1 |
| 20260506102023 | 11 | 173 | 4.8 | 4.8 | 0.00 | 0.00 | 0.00 | 88 | 1020.9 |
| 20260506101519 | 11 | 162 | 4.8 | 4.8 | 0.00 | 0.00 | 0.00 | 88 | 1020.9 |
| 20260506101016 | 11 | 187 | 3.2 | 4.8 | 0.00 | 0.00 | 0.00 | 88 | 1020.8 |
| 20260506100514 | 11 | 175 | 4.8 | 4.8 | 0.00 | 0.00 | 0.00 | 88 | 1020.7 |
| 20260506100013 | 11 | 166 | 3.2 | 4.8 | 0.00 | 0.00 | 0.00 | 88 | 1020.9 |
| 20260506095511 | 11 | 167 | 6.4 | 9.7 | 0.00 | 0.00 | 0.00 | 88 | 1020.7 |
| 20260506095006 | 11 | 209 | 3.2 | 4.8 | 0.00 | 0.00 | 0.00 | 88 | 1020.6 |
| 20260506094505 | 11 | 189 | 3.2 | 3.2 | 0.00 | 0.00 | 0.00 | 87 | 1020.7 |
| 20260506094002 | 11 | 205 | 8.0 | 11.3 | 0.00 | 0.00 | 0.00 | 87 | 1020.7 |
| 20260506093500 | 11 | 195 | 8.0 | 11.3 | 0.00 | 0.00 | 0.00 | 87 | 1020.7 |
| 20260506092958 | 11 | 156 | 6.4 | 8.0 | 0.00 | 0.00 | 0.00 | 87 | 1020.6 |
| 20260506092455 | 12 | 214 | 4.8 | 12.9 | 0.00 | 0.00 | 0.00 | 87 | 1020.5 |
| 20260506091951 | 12 | 193 | 4.8 | 9.7 | 0.00 | 0.00 | 0.00 | 88 | 1020.5 |
| 20260506091450 | 12 | 230 | 6.4 | 8.0 | 0.00 | 0.00 | 0.00 | 88 | 1020.5 |
| 20260506090947 | 12 | 194 | 3.2 | 9.7 | 0.00 | 0.00 | 0.00 | 88 | 1020.5 |
| 20260506090445 | 12 | 206 | 4.8 | 8.0 | 0.00 | 0.00 | 0.00 | 88 | 1020.5 |
| 20260506085941 | 12 | 202 | 4.8 | 8.0 | 0.00 | 0.00 | 0.00 | 87 | 1020.4 |
| 20260506085438 | 12 | 195 | 4.8 | 8.0 | 0.00 | 0.00 | 0.00 | 87 | 1020.2 |
| 20260506084934 | 12 | 162 | 3.2 | 9.7 | 0.00 | 0.00 | 0.00 | 88 | 1020.3 |
| 20260506084431 | 12 | 210 | 3.2 | 4.8 | 0.00 | 0.00 | 0.00 | 88 | 1020.4 |
| 20260506083927 | 12 | 187 | 3.2 | 4.8 | 0.00 | 0.00 | 0.00 | 88 | 1020.1 |
| 20260506083425 | 12 | 199 | 0.0 | 1.6 | 0.00 | 0.00 | 0.00 | 87 | 1020.2 |
| 20260506082922 | 12 | 160 | 1.6 | 4.8 | 0.00 | 0.00 | 0.00 | 87 | 1020.3 |
| 20260506082419 | 12 | 175 | 1.6 | 3.2 | 0.00 | 0.00 | 0.00 | 87 | 1020.2 |
| 20260506081914 | 12 | 151 | 3.2 | 3.2 | 0.00 | 0.00 | 0.00 | 87 | 1020.3 |
| 20260506081414 | 11 | 178 | 4.8 | 4.8 | 0.00 | 0.00 | 0.00 | 88 | 1020.3 |
| 20260506080910 | 11 | 198 | 4.8 | 4.8 | 0.00 | 0.00 | 0.00 | 87 | 1020.3 |
| 20260506080407 | 12 | 215 | 4.8 | 4.8 | 0.00 | 0.00 | 0.00 | 88 | 1020.2 |
| 20260506073351 | 12 | 175 | 4.8 | 4.8 | 0.00 | 0.00 | 0.00 | 89 | 1019.9 |
| 20260506072847 | 12 | 191 | 1.6 | 3.2 | 0.00 | 0.00 | 0.00 | 88 | 1019.9 |
| 20260506072345 | 12 | 186 | 1.6 | 3.2 | 0.00 | 0.00 | 0.00 | 88 | 1019.9 |
| 20260506071843 | 12 | 161 | 3.2 | 4.8 | 0.00 | 0.00 | 0.00 | 88 | 1019.7 |
| 20260506071341 | 12 | 194 | 1.6 | 3.2 | 0.00 | 0.00 | 0.00 | 88 | 1019.8 |
| 20260506070837 | 12 | 169 | 1.6 | 4.8 | 0.00 | 0.00 | 0.00 | 88 | 1019.7 |
| 20260506070334 | 12 | 158 | 3.2 | 4.8 | 0.00 | 0.00 | 0.00 | 88 | 1019.7 |
| 20260506062312 | 12 | 186 | 1.6 | 4.8 | 0.00 | 0.00 | 0.00 | 87 | 1019.2 |
| 20260506061807 | 12 | 200 | 4.8 | 8.0 | 0.00 | 0.00 | 0.00 | 87 | 1019.3 |
| 20260506061304 | 12 | 214 | 4.8 | 4.8 | 0.00 | 0.00 | 0.00 | 88 | 1019.4 |
| 20260506060803 | 12 | 202 | 1.6 | 3.2 | 0.00 | 0.00 | 0.00 | 88 | 1019.2 |
| 20260506060300 | 12 | 186 | 1.6 | 1.6 | 0.00 | 0.00 | 0.00 | 89 | 1019.2 |
| 20260506051232 | 11 | 149 | 0.0 | 0.0 | 0.00 | 0.00 | 0.00 | 92 | 1018.7 |
| 20260506050730 | 11 | 150 | 0.0 | 0.0 | 0.00 | 0.00 | 0.00 | 92 | 1018.8 |
| 20260506050227 | 12 | 150 | 0.0 | 0.0 | 0.00 | 0.00 | 0.00 | 92 | 1018.6 |
| 20260506044718 | 12 | 149 | 0.0 | 0.0 | 0.00 | 0.00 | 0.00 | 91 | 1018.6 |
| 20260506044215 | 12 | 149 | 0.0 | 0.0 | 0.00 | 0.00 | 0.00 | 91 | 1018.8 |
| 20260506043712 | 12 | 149 | 0.0 | 0.0 | 0.00 | 0.00 | 0.00 | 90 | 1018.8 |
| 20260506043210 | 12 | 149 | 0.0 | 0.0 | 0.00 | 0.00 | 0.00 | 90 | 1018.4 |
| 20260506042709 | 12 | 149 | 0.0 | 0.0 | 0.00 | 0.00 | 0.00 | 90 | 1018.6 |
| 20260506042206 | 12 | 149 | 0.0 | 0.0 | 0.00 | 0.00 | 0.00 | 89 | 1018.5 |
| 20260506041704 | 12 | 141 | 0.0 | 0.0 | 0.00 | 0.00 | 0.00 | 89 | 1018.4 |
| 20260506041201 | 12 | 148 | 0.0 | 1.6 | 0.00 | 0.00 | 0.00 | 89 | 1018.4 |
| 20260506040659 | 12 | 152 | 0.0 | 1.6 | 0.00 | 0.00 | 0.00 | 88 | 1018.4 |
| 20260506040155 | 13 | 157 | 1.6 | 1.6 | 0.00 | 0.00 | 0.00 | 88 | 1018.4 |
| 20260506035652 | 13 | 150 | 0.0 | 0.0 | 0.00 | 0.00 | 0.00 | 87 | 1018.3 |
| 20260506035149 | 13 | 181 | 1.6 | 1.6 | 0.00 | 0.00 | 0.00 | 87 | 1018.3 |
| 20260506034646 | 13 | 148 | 0.0 | 1.6 | 0.00 | 0.00 | 0.00 | 87 | 1018.4 |
| 20260506034143 | 13 | 142 | 1.6 | 3.2 | 0.00 | 0.00 | 0.00 | 86 | 1018.2 |
| 20260506033640 | 13 | 154 | 1.6 | 1.6 | 0.00 | 0.00 | 0.00 | 86 | 1018.1 |
| 20260506033137 | 13 | 142 | 1.6 | 3.2 | 0.00 | 0.00 | 0.00 | 85 | 1018.0 |
| 20260506032634 | 13 | 140 | 1.6 | 3.2 | 0.00 | 0.00 | 0.00 | 85 | 1018.0 |
| 20260506032131 | 13 | 157 | 1.6 | 3.2 | 0.00 | 0.00 | 0.00 | 84 | 1018.0 |
| 20260506031628 | 14 | 136 | 3.2 | 3.2 | 0.00 | 0.00 | 0.00 | 83 | 1017.8 |
| 20260506031125 | 14 | 141 | 1.6 | 1.6 | 0.00 | 0.00 | 0.00 | 82 | 1018.0 |
| 20260506030624 | 15 | 149 | 1.6 | 3.2 | 0.00 | 0.00 | 0.00 | 81 | 1017.7 |
| 20260506030120 | 15 | 152 | 3.2 | 3.2 | 0.00 | 0.00 | 0.00 | 81 | 1017.8 |
| 20260506025617 | 15 | 150 | 0.0 | 1.6 | 0.00 | 0.00 | 0.00 | 80 | 1017.8 |
| 20260506025113 | 15 | 157 | 1.6 | 1.6 | 0.00 | 0.00 | 0.00 | 79 | 1017.7 |
| 20260506024611 | 15 | 158 | 1.6 | 3.2 | 0.00 | 0.00 | 0.00 | 77 | 1017.9 |
| 20260506024107 | 16 | 166 | 1.6 | 3.2 | 0.00 | 0.00 | 0.00 | 76 | 1017.7 |
| 20260506023603 | 16 | 162 | 1.6 | 3.2 | 0.00 | 0.00 | 0.00 | 74 | 1017.7 |
| 20260506023101 | 16 | 173 | 3.2 | 3.2 | 0.00 | 0.00 | 0.00 | 72 | 1017.8 |
| 20260506022558 | 16 | 168 | 0.0 | 3.2 | 0.00 | 0.00 | 0.00 | 73 | 1017.8 |
| 20260506022055 | 16 | 172 | 1.6 | 4.8 | 0.00 | 0.00 | 0.00 | 73 | 1017.7 |
| 20260506021553 | 16 | 196 | 4.8 | 4.8 | 0.00 | 0.00 | 0.00 | 73 | 1017.7 |
| 20260506021050 | 16 | 164 | 1.6 | 4.8 | 0.00 | 0.00 | 0.00 | 71 | 1017.9 |
| 20260506020547 | 17 | 193 | 3.2 | 3.2 | 0.00 | 0.00 | 0.00 | 71 | 1017.8 |
| 20260506020044 | 17 | 190 | 1.6 | 9.7 | 0.00 | 0.00 | 0.00 | 71 | 1018.0 |
| 20260506015542 | 17 | 177 | 3.2 | 4.8 | 0.00 | 0.00 | 0.00 | 71 | 1017.8 |
| 20260506015039 | 17 | 197 | 1.6 | 3.2 | 0.00 | 0.00 | 0.00 | 71 | 1017.7 |
| 20260506014536 | 17 | 199 | 4.8 | 4.8 | 0.00 | 0.00 | 0.00 | 69 | 1017.7 |
| 20260506014031 | 17 | 209 | 4.8 | 4.8 | 0.00 | 0.00 | 0.00 | 70 | 1018.0 |
| 20260506013530 | 17 | 208 | 3.2 | 3.2 | 0.00 | 0.00 | 0.00 | 70 | 1017.7 |
| 20260506013026 | 17 | 188 | 1.6 | 3.2 | 0.00 | 0.00 | 0.00 | 68 | 1017.7 |
| 20260506012523 | 17 | 226 | 4.8 | 4.8 | 0.00 | 0.00 | 0.00 | 68 | 1017.8 |
| 20260506012020 | 17 | 212 | 1.6 | 3.2 | 0.00 | 0.00 | 0.00 | 68 | 1017.9 |
| 20260506011517 | 17 | 211 | 3.2 | 4.8 | 0.00 | 0.00 | 0.00 | 67 | 1018.1 |
| 20260506011014 | 17 | 164 | 1.6 | 4.8 | 0.00 | 0.00 | 0.00 | 67 | 1017.9 |
| 20260506010513 | 18 | 196 | 3.2 | 8.0 | 0.00 | 0.00 | 0.00 | 67 | 1017.8 |
| 20260506010009 | 18 | 181 | 4.8 | 8.0 | 0.00 | 0.00 | 0.00 | 67 | 1017.9 |
| 20260506005507 | 18 | 165 | 1.6 | 3.2 | 0.00 | 0.00 | 0.00 | 67 | 1018.0 |
| 20260506005001 | 17 | 171 | 4.8 | 8.0 | 0.00 | 0.00 | 0.00 | 67 | 1018.0 |
| 20260506004500 | 17 | 162 | 4.8 | 4.8 | 0.00 | 0.00 | 0.00 | 67 | 1017.9 |
| 20260506003955 | 18 | 161 | 4.8 | 9.7 | 0.00 | 0.00 | 0.00 | 66 | 1018.1 |
| 20260506003452 | 18 | 185 | 4.8 | 4.8 | 0.00 | 0.00 | 0.00 | 67 | 1018.1 |
| 20260506002948 | 18 | 188 | 4.8 | 8.0 | 0.00 | 0.00 | 0.00 | 65 | 1018.2 |
| 20260506002445 | 18 | 152 | 6.4 | 9.7 | 0.00 | 0.00 | 0.00 | 66 | 1018.2 |
| 20260506001940 | 17 | 181 | 3.2 | 4.8 | 0.00 | 0.00 | 0.00 | 67 | 1018.2 |
| 20260506001437 | 18 | 176 | 4.8 | 8.0 | 0.00 | 0.00 | 0.00 | 67 | 1018.1 |
| 20260506000935 | 18 | 172 | 3.2 | 9.7 | 0.00 | 0.00 | 0.00 | 67 | 1018.2 |
| 20260506000432 | 18 | 226 | 4.8 | 12.9 | 0.00 | 0.00 | 0.00 | 66 | 1018.3 |
| 20260505235929 | 18 | 191 | 6.4 | 9.7 | 0.00 | 0.00 | 0.00 | 66 | 1018.2 |
| 20260505235427 | 18 | 179 | 1.6 | 4.8 | 0.00 | 0.00 | 0.00 | 67 | 1018.2 |
| 20260505234923 | 17 | 180 | 1.6 | 3.2 | 0.00 | 0.00 | 0.00 | 68 | 1018.4 |
| 20260505234421 | 17 | 204 | 6.4 | 8.0 | 0.00 | 0.00 | 0.00 | 68 | 1018.4 |
| 20260505233917 | 18 | 211 | 3.2 | 4.8 | 0.00 | 0.00 | 0.00 | 67 | 1018.4 |
| 20260505233415 | 17 | 215 | 4.8 | 8.0 | 0.00 | 0.00 | 0.00 | 68 | 1018.5 |
| 20260505232913 | 17 | 203 | 6.4 | 9.7 | 0.00 | 0.00 | 0.00 | 68 | 1018.6 |
| 20260505232411 | 17 | 180 | 3.2 | 9.7 | 0.00 | 0.00 | 0.00 | 68 | 1018.6 |
| 20260505231907 | 17 | 188 | 4.8 | 17.7 | 0.00 | 0.00 | 0.00 | 67 | 1018.8 |
| 20260505231405 | 17 | 207 | 6.4 | 9.7 | 0.00 | 0.00 | 0.00 | 67 | 1018.8 |
| 20260505230903 | 17 | 156 | 4.8 | 12.9 | 0.00 | 0.00 | 0.00 | 67 | 1018.7 |
| 20260505230400 | 17 | 170 | 3.2 | 9.7 | 0.00 | 0.00 | 0.00 | 68 | 1018.5 |
| 20260505225856 | 17 | 208 | 4.8 | 11.3 | 0.00 | 0.00 | 0.00 | 69 | 1019.0 |
| 20260505225354 | 17 | 172 | 4.8 | 8.0 | 0.00 | 0.00 | 0.00 | 70 | 1018.8 |
| 20260505224849 | 16 | 200 | 4.8 | 8.0 | 0.00 | 0.00 | 0.00 | 70 | 1018.6 |
| 20260505224347 | 16 | 184 | 3.2 | 8.0 | 0.00 | 0.00 | 0.00 | 71 | 1019.0 |
| 20260505223843 | 16 | 186 | 6.4 | 11.3 | 0.00 | 0.00 | 0.00 | 70 | 1018.9 |
| 20260505223340 | 17 | 186 | 4.8 | 9.7 | 0.00 | 0.00 | 0.00 | 70 | 1018.9 |
| 20260505222836 | 17 | 184 | 1.6 | 3.2 | 0.00 | 0.00 | 0.00 | 70 | 1019.0 |
| 20260505222332 | 16 | 178 | 8.0 | 12.9 | 0.00 | 0.00 | 0.00 | 70 | 1019.1 |
| 20260505221830 | 16 | 197 | 1.6 | 8.0 | 0.00 | 0.00 | 0.00 | 72 | 1018.9 |
| 20260505221326 | 16 | 142 | 4.8 | 8.0 | 0.00 | 0.00 | 0.00 | 72 | 1019.0 |
| 20260505220823 | 16 | 172 | 4.8 | 9.7 | 0.00 | 0.00 | 0.00 | 71 | 1019.1 |
| 20260505220320 | 16 | 149 | 4.8 | 4.8 | 0.00 | 0.00 | 0.00 | 72 | 1019.4 |
| 20260505215818 | 16 | 194 | 3.2 | 8.0 | 0.00 | 0.00 | 0.00 | 74 | 1019.2 |
| 20260505215316 | 16 | 213 | 3.2 | 8.0 | 0.00 | 0.00 | 0.00 | 72 | 1019.5 |
| 20260505214814 | 16 | 172 | 6.4 | 9.7 | 0.00 | 0.00 | 0.00 | 72 | 1019.2 |
| 20260505214311 | 16 | 175 | 8.0 | 11.3 | 0.00 | 0.00 | 0.00 | 72 | 1019.3 |
| 20260505213808 | 16 | 178 | 20.9 | 25.7 | 0.00 | 0.00 | 0.00 | 72 | 1019.3 |
| 20260505213306 | 16 | 200 | 9.7 | 12.9 | 0.00 | 0.00 | 0.00 | 72 | 1019.4 |
| 20260505212801 | 16 | 200 | 8.0 | 12.9 | 0.00 | 0.00 | 0.00 | 72 | 1019.4 |
| 20260505212259 | 16 | 187 | 9.7 | 14.5 | 0.00 | 0.00 | 0.00 | 73 | 1019.4 |
| 20260505211755 | 15 | 156 | 8.0 | 12.9 | 0.00 | 0.00 | 0.00 | 73 | 1019.0 |
| 20260505211253 | 15 | 190 | 9.7 | 16.1 | 0.00 | 0.00 | 0.00 | 74 | 1019.3 |
| 20260505210749 | 15 | 214 | 9.7 | 12.9 | 0.00 | 0.00 | 0.00 | 74 | 1019.4 |
| 20260505210246 | 15 | 164 | 8.0 | 11.3 | 0.00 | 0.00 | 0.00 | 74 | 1019.5 |
| 20260505205743 | 15 | 166 | 8.0 | 11.3 | 0.00 | 0.00 | 0.00 | 74 | 1019.5 |
| 20260505205241 | 15 | 174 | 3.2 | 9.7 | 0.00 | 0.00 | 0.00 | 74 | 1019.4 |
| 20260505204737 | 15 | 180 | 3.2 | 8.0 | 0.00 | 0.00 | 0.00 | 75 | 1019.6 |
| 20260505204236 | 15 | 156 | 1.6 | 9.7 | 0.00 | 0.00 | 0.00 | 74 | 1019.6 |
| 20260505203732 | 15 | 150 | 6.4 | 9.7 | 0.00 | 0.00 | 0.00 | 74 | 1019.5 |
| 20260505203229 | 15 | 155 | 0.0 | 4.8 | 0.00 | 0.00 | 0.00 | 75 | 1019.3 |
| 20260505202725 | 15 | 201 | 6.4 | 8.0 | 0.00 | 0.00 | 0.00 | 76 | 1019.5 |
| 20260505202221 | 15 | 235 | 9.7 | 14.5 | 0.00 | 0.00 | 0.00 | 76 | 1019.5 |
| 20260505201718 | 15 | 183 | 1.6 | 8.0 | 0.00 | 0.00 | 0.00 | 76 | 1019.3 |
| 20260505201216 | 15 | 187 | 1.6 | 4.8 | 0.00 | 0.00 | 0.00 | 76 | 1019.5 |
| 20260505200714 | 15 | 169 | 3.2 | 8.0 | 0.00 | 0.00 | 0.00 | 76 | 1019.5 |
| 20260505200210 | 15 | 149 | 4.8 | 4.8 | 0.00 | 0.00 | 0.00 | 76 | 1019.5 |
| 20260505195706 | 15 | 152 | 1.6 | 4.8 | 0.00 | 0.00 | 0.00 | 77 | 1019.3 |
| 20260505195204 | 15 | 167 | 0.0 | 8.0 | 0.00 | 0.00 | 0.00 | 77 | 1019.5 |
| 20260505194701 | 14 | 207 | 4.8 | 4.8 | 0.00 | 0.00 | 0.00 | 78 | 1019.4 |
| 20260505194157 | 14 | 242 | 6.4 | 12.9 | 0.00 | 0.00 | 0.00 | 77 | 1019.6 |
| 20260505193653 | 14 | 199 | 8.0 | 11.3 | 0.00 | 0.00 | 0.00 | 78 | 1019.4 |
| 20260505193151 | 14 | 227 | 4.8 | 11.3 | 0.00 | 0.00 | 0.00 | 78 | 1019.6 |
| 20260505192649 | 14 | 156 | 3.2 | 4.8 | 0.00 | 0.00 | 0.00 | 78 | 1019.5 |
| 20260505192146 | 14 | 199 | 4.8 | 8.0 | 0.00 | 0.00 | 0.00 | 78 | 1019.5 |
| 20260505191645 | 14 | 211 | 3.2 | 9.7 | 0.00 | 0.00 | 0.00 | 79 | 1019.6 |
| 20260505191143 | 14 | 163 | 3.2 | 9.7 | 0.00 | 0.00 | 0.00 | 79 | 1019.5 |
| 20260505190638 | 14 | 240 | 4.8 | 4.8 | 0.00 | 0.00 | 0.00 | 79 | 1019.4 |
| 20260505190133 | 14 | 243 | 8.0 | 12.9 | 0.00 | 0.00 | 0.00 | 79 | 1019.4 |
| 20260505185630 | 14 | 229 | 4.8 | 8.0 | 0.00 | 0.00 | 0.00 | 79 | 1019.4 |
| 20260505185126 | 13 | 178 | 4.8 | 8.0 | 0.00 | 0.00 | 0.00 | 80 | 1019.3 |
| 20260505184623 | 13 | 139 | 8.0 | 9.7 | 0.00 | 0.00 | 0.00 | 80 | 1019.4 |
| 20260505184120 | 13 | 124 | 1.6 | 3.2 | 0.00 | 0.00 | 0.00 | 81 | 1019.4 |
| 20260505183616 | 13 | 211 | 4.8 | 8.0 | 0.00 | 0.00 | 0.00 | 80 | 1019.5 |
| 20260505183114 | 13 | 216 | 3.2 | 3.2 | 0.00 | 0.00 | 0.00 | 80 | 1019.5 |
| 20260505182610 | 13 | 177 | 4.8 | 8.0 | 0.00 | 0.00 | 0.00 | 81 | 1019.2 |
| 20260505182107 | 13 | 186 | 6.4 | 9.7 | 0.00 | 0.00 | 0.00 | 80 | 1019.3 |
| 20260505181604 | 13 | 201 | 6.4 | 9.7 | 0.00 | 0.00 | 0.00 | 80 | 1019.2 |
| 20260505181101 | 13 | 211 | 1.6 | 8.0 | 0.00 | 0.00 | 0.00 | 81 | 1019.4 |
| 20260505180557 | 13 | 144 | 4.8 | 9.7 | 0.00 | 0.00 | 0.00 | 80 | 1019.5 |
| 20260505180055 | 13 | 180 | 3.2 | 4.8 | 0.00 | 0.00 | 0.00 | 80 | 1019.2 |
| 20260505175550 | 13 | 159 | 3.2 | 4.8 | 0.00 | 0.00 | 0.00 | 81 | 1019.2 |
| 20260505175047 | 13 | 209 | 3.2 | 4.8 | 0.00 | 0.00 | 0.00 | 80 | 1019.5 |
| 20260505174544 | 13 | 185 | 1.6 | 4.8 | 0.00 | 0.00 | 0.00 | 81 | 1019.2 |
| 20260505174039 | 13 | 167 | 1.6 | 4.8 | 0.00 | 0.00 | 0.00 | 81 | 1019.3 |
| 20260505173536 | 13 | 164 | 3.2 | 3.2 | 0.00 | 0.00 | 0.00 | 81 | 1019.2 |
| 20260505173033 | 13 | 136 | 1.6 | 3.2 | 0.00 | 0.00 | 0.00 | 81 | 1019.2 |
| 20260505172531 | 13 | 167 | 1.6 | 3.2 | 0.00 | 0.00 | 0.00 | 81 | 1019.1 |
| 20260505172027 | 13 | 160 | 3.2 | 4.8 | 0.00 | 0.00 | 0.00 | 81 | 1019.3 |
| 20260505171522 | 13 | 161 | 1.6 | 3.2 | 0.00 | 0.00 | 0.00 | 81 | 1019.2 |
| 20260505171019 | 13 | 162 | 0.0 | 1.6 | 0.00 | 0.00 | 0.00 | 82 | 1019.2 |
| 20260505170516 | 13 | 170 | 0.0 | 1.6 | 0.00 | 0.00 | 0.00 | 82 | 1019.0 |
| 20260505170012 | 13 | 157 | 0.0 | 1.6 | 0.00 | 0.00 | 0.00 | 82 | 1019.0 |
| 20260505165507 | 13 | 163 | 0.0 | 3.2 | 0.00 | 0.00 | 0.00 | 82 | 1019.0 |
| 20260505165003 | 13 | 196 | 3.2 | 3.2 | 0.00 | 0.00 | 0.00 | 82 | 1019.1 |
| 20260505164500 | 13 | 188 | 4.8 | 4.8 | 0.00 | 0.00 | 0.00 | 82 | 1019.2 |
| 20260505163958 | 13 | 206 | 3.2 | 4.8 | 0.00 | 0.00 | 0.00 | 82 | 1018.9 |
| 20260505163456 | 13 | 198 | 3.2 | 4.8 | 0.00 | 0.00 | 0.00 | 82 | 1019.1 |
| 20260505162956 | 13 | 174 | 1.6 | 3.2 | 0.00 | 0.00 | 0.00 | 82 | 1019.0 |
| 20260505162450 | 13 | 171 | 1.6 | 3.2 | 0.00 | 0.00 | 0.00 | 82 | 1019.0 |
| 20260505161947 | 13 | 173 | 1.6 | 1.6 | 0.00 | 0.00 | 0.00 | 82 | 1018.9 |
| 20260505161444 | 13 | 165 | 3.2 | 3.2 | 0.00 | 0.00 | 0.00 | 82 | 1018.8 |
| 20260505160942 | 13 | 186 | 1.6 | 3.2 | 0.00 | 0.00 | 0.00 | 82 | 1018.8 |
| 20260505160440 | 13 | 185 | 1.6 | 1.6 | 0.00 | 0.00 | 0.00 | 83 | 1018.5 |
| 20260505152916 | 12 | 177 | 1.6 | 1.6 | 0.00 | 0.00 | 0.00 | 84 | 1018.8 |
| 20260505152413 | 12 | 180 | 1.6 | 3.2 | 0.00 | 0.00 | 0.00 | 84 | 1018.7 |
| 20260505151907 | 12 | 161 | 1.6 | 4.8 | 0.00 | 0.00 | 0.00 | 84 | 1018.8 |
| 20260505151404 | 12 | 161 | 0.0 | 1.6 | 0.00 | 0.00 | 0.00 | 84 | 1018.7 |
| 20260505150902 | 12 | 195 | 3.2 | 4.8 | 0.00 | 0.00 | 0.00 | 84 | 1018.7 |
| 20260505150359 | 12 | 196 | 4.8 | 9.7 | 0.00 | 0.00 | 0.00 | 84 | 1018.7 |
| 20260505140323 | 12 | 188 | 3.2 | 3.2 | 0.00 | 0.00 | 0.00 | 85 | 1017.8 |
| 20260505130246 | 12 | 160 | 1.6 | 1.6 | 0.00 | 0.00 | 0.00 | 85 | 1017.4 |
| 20260505124737 | 12 | 191 | 4.8 | 4.8 | 0.00 | 0.00 | 0.00 | 85 | 1017.3 |
| 20260505124233 | 12 | 165 | 3.2 | 4.8 | 0.00 | 0.00 | 0.00 | 85 | 1017.4 |
| 20260505123728 | 12 | 161 | 1.6 | 9.7 | 0.00 | 0.00 | 0.00 | 85 | 1017.3 |
| 20260505123226 | 12 | 166 | 1.6 | 4.8 | 0.00 | 0.00 | 0.00 | 85 | 1017.3 |
| 20260505122722 | 12 | 193 | 3.2 | 4.8 | 0.00 | 0.00 | 0.00 | 86 | 1017.3 |
| 20260505122220 | 12 | 163 | 3.2 | 4.8 | 0.00 | 0.00 | 0.00 | 86 | 1017.2 |
| 20260505121716 | 12 | 203 | 1.6 | 8.0 | 0.00 | 0.00 | 0.00 | 86 | 1017.2 |
| 20260505121213 | 12 | 162 | 4.8 | 8.0 | 0.00 | 0.00 | 0.00 | 86 | 1017.0 |
| 20260505120709 | 12 | 198 | 3.2 | 3.2 | 0.00 | 0.00 | 0.00 | 86 | 1017.1 |
| 20260505120205 | 12 | 170 | 4.8 | 8.0 | 0.00 | 0.00 | 0.00 | 86 | 1017.2 |
| 20260505115658 | 12 | 175 | 1.6 | 3.2 | 0.00 | 0.00 | 0.00 | 86 | 1017.1 |
| 20260505115156 | 12 | 190 | 1.6 | 9.7 | 0.00 | 0.00 | 0.00 | 86 | 1017.0 |
| 20260505114654 | 12 | 203 | 4.8 | 4.8 | 0.00 | 0.00 | 0.00 | 86 | 1017.2 |
| 20260505114149 | 12 | 210 | 6.4 | 8.0 | 0.00 | 0.00 | 0.00 | 86 | 1017.1 |
| 20260505113646 | 12 | 151 | 1.6 | 4.8 | 0.00 | 0.00 | 0.00 | 86 | 1017.0 |
| 20260505113143 | 12 | 184 | 3.2 | 4.8 | 0.00 | 0.00 | 0.00 | 86 | 1017.0 |
| 20260505112639 | 12 | 131 | 4.8 | 9.7 | 0.00 | 0.00 | 0.00 | 86 | 1017.1 |
| 20260505112138 | 12 | 157 | 3.2 | 8.0 | 0.00 | 0.00 | 0.00 | 86 | 1016.9 |
| 20260505111637 | 12 | 175 | 3.2 | 3.2 | 0.00 | 0.00 | 0.00 | 86 | 1017.2 |
| 20260505111133 | 12 | 192 | 1.6 | 4.8 | 0.00 | 0.00 | 0.00 | 86 | 1017.0 |
| 20260505110629 | 12 | 129 | 8.0 | 11.3 | 0.00 | 0.00 | 0.00 | 86 | 1016.9 |